www.pogodaiklimat.ru

Погода и климат >> Архив погоды >> Норвегия >> Акселойа


ПОГОДА на Акселойа

  • Прогноз погоды на Акселойа
  • Монитор погоды на Акселойа

АРХИВ ПОГОДЫ на Акселойа

Время (UTC), дата Ветер
(напр.,м/с)
 
Видим.   Явления Облачность Т
(С)
Тd
(С)
f
(%)
Тe
(С)
Тes
(С)
Комфортность P
(гПа)
Po
(гПа)
Тmin
(С)
Tmax
(С)
R
(мм)
R24
(мм)
S
(см)
22 18.08 ЮВ 2
{5}
н/о н/о +5.0 -0.4 68 +3 +3 1009.3 1008.5
23 18.08 ЮВ 2
{4}
н/о н/о +4.7 -0.9 67 +2 +2 1009.5 1008.7
00 19.08 ЮВ 2
{5}
н/о н/о +4.7 -0.5 69 +2 +2 1009.6 1008.8
01 19.08 ЮВ 3
{4}
н/о н/о +4.5 -1.3 66 +1 +1 1009.4 1008.6
02 19.08 В 1
{4}
н/о н/о +4.1 -1.4 67 +3 +3 1009.5 1008.7
03 19.08 ЮВ 2
{3}
н/о н/о +4.5 -1.1 67 +2 +2 1009.6 1008.8
04 19.08 В 2
{4}
н/о н/о +4.3 -1.1 68 +2 +2 1009.5 1008.7
05 19.08 ЮВ 3
{5}
н/о н/о +4.3 -1.3 67 +1 +1 1009.5 1008.7
06 19.08 ЮВ 4
{5}
н/о н/о +4.0 -1.3 68 -0 -0 1009.4 1008.6 +3.7 +5.1
07 19.08 В 4
{5}
н/о н/о +4.2 -1.4 67 0 0 1009.6 1008.8
08 19.08 В 2
{4}
н/о н/о +4.4 -0.8 69 +2 +2 1009.7 1008.9
09 19.08 ЮВ 2
{5}
н/о н/о +4.7 -1.1 66 +2 +2 1009.4 1008.6
10 19.08 В 3
{5}
н/о н/о +4.7 -0.7 68 +1 +1 1009.3 1008.5
11 19.08 В 3
{4}
н/о н/о +5.1 +0.1 70 +2 +2 1009.3 1008.5
12 19.08 В 3
{5}
н/о н/о +5.4 -0.6 65 +2 +2 1009.4 1008.6
13 19.08 В 3
{5}
н/о н/о +5.5 +0.3 69 +2 +2 1009.4 1008.6
14 19.08 В 6
{7}
н/о н/о +5.5 +0.9 72 +1 +1 1009.1 1008.3
15 19.08 В 8
{9}
н/о н/о +5.2 +1.2 75 -0 -0 1008.7 1007.9
16 19.08 В 9
{10}
н/о н/о +4.8 +1.1 77 -1 -1 1008.7 1007.9
18 19.08 В 9 н/о н/о +4.5 +0.8 77 -2 -2 1008.4 1007.6
19 19.08 СВ 8
{10}
н/о н/о +4.3 +0.8 78 -2 -2 1008.6 1007.8
20 19.08 СВ 9
{11}
н/о н/о +4.2 +0.9 79 -2 -2 1008.4 1007.6
21 19.08 В 8
{10}
н/о н/о +4.1 +0.5 77 -2 -2 1008.4 1007.6
22 19.08 СВ 8
{10}
н/о н/о +3.9 +0.3 77 -2 -2 1008.1 1007.3
23 19.08 СВ 8
{10}
н/о н/о +3.9 -0.1 75 -2 -2 1007.6 1006.8
00 20.08 СВ 8
{11}
н/о н/о +4.0 +0.2 76 -2 -2 1007.3 1006.5
02 20.08 В 10
{12}
н/о н/о +3.9 +0.1 76 -3 -3 1006.4 1005.6
03 20.08 СВ 11
{13}
н/о н/о +3.7 +0.1 77 -3 -3 1005.9 1005.1
04 20.08 В 11
{13}
н/о н/о +3.8 +0.2 77 -3 -3 1005.2 1004.4
05 20.08 СВ 12
{13}
н/о н/о +4.0 +0.5 78 -3 -3 1004.8 1004.0
06 20.08 СВ 11 н/о н/о +4.1 +0.5 77 -3 -3 1004.1 1003.3
07 20.08 СВ 13
{14}
н/о н/о +4.4 +0.6 76 -3 -3 1003.5 1002.7
08 20.08 В 12
{16}
н/о н/о +4.3 +0.8 78 -3 -3 1003.3 1002.5
09 20.08 В 11
{14}
н/о н/о +4.3 +1.3 81 -3 -3 1002.8 1002.0
10 20.08 В 10
{14}
н/о н/о +4.3 +1.2 80 -2 -2 1002.4 1001.6
11 20.08 СВ 9
{11}
н/о н/о +4.7 +1.6 80 -2 -2 1002.1 1001.3
12 20.08 СВ 8
{16}
н/о н/о +4.5 +2.2 85 -2 -2 1001.7 1000.9
13 20.08 СВ 8
{9}
н/о н/о +4.8 +2.5 85 -1 -1 1001.4 1000.6
14 20.08 В 8
{9}
н/о н/о +4.7 +2.2 84 -1 -1 1001.0 1000.2
15 20.08 В 7
{8}
н/о н/о +4.8 +2.7 86 -1 -1 1001.0 1000.2
16 20.08 СВ 6
{8}
н/о н/о +4.9 +2.9 87 -0 -0 1000.9 1000.1
17 20.08 СВ 6
{7}
н/о н/о +4.9 +3.2 89 -0 -0 1001.1 1000.3
18 20.08 В 6
{9}
н/о н/о +4.8 +3.2 89 -1 -1 1001.1 1000.3 +4.0 +5.0
19 20.08 В 4
{6}
н/о н/о +4.7 +3.1 89 0 0 1001.0 1000.2
20 20.08 СВ 1
{4}
н/о н/о +4.9 +3.4 90 +4 +4 1001.4 1000.6
21 20.08 С 5
{6}
н/о н/о +5.5 +2.7 82 +1 +1 1001.4 1000.6
22 20.08 С 4
{6}
н/о н/о +4.8 +2.2 83 +1 +1 1001.5 1000.7
23 20.08 С 5
{6}
н/о н/о +4.6 +2.0 83 -0 -0 1001.7 1000.9
00 21.08 С 5
{7}
н/о н/о +4.6 +1.8 82 -0 -0 1002.2 1001.4
01 21.08 СВ 4
{5}
н/о н/о +5.0 +2.5 84 +1 +1 1002.7 1001.9
02 21.08 С 2
{5}
н/о н/о +4.5 +1.9 83 +2 +2 1003.2 1002.4
03 21.08 С 2
{5}
н/о н/о +4.5 +1.2 79 +2 +2 1003.7 1002.9
04 21.08 В 4
{5}
н/о н/о +4.5 +2.0 84 0 0 1004.0 1003.2
05 21.08 В 4
{5}
н/о н/о +4.7 +2.2 84 +1 +1 1004.6 1003.8
06 21.08 В 4
{5}
н/о н/о +4.8 +2.0 82 +1 +1 1005.0 1004.2 +4.3 +5.5
07 21.08 В 3
{5}
н/о н/о +5.4 +1.5 76 +2 +2 1005.9 1005.1
08 21.08 СВ 2
{5}
н/о н/о +6.0 +1.2 71 +4 +4 1006.6 1005.8
09 21.08 С 4
{5}
н/о н/о +5.9 +0.3 67 +2 +2 1007.1 1006.3
10 21.08 С 5
{6}
н/о н/о +6.1 -0.4 63 +2 +2 1007.8 1007.0
11 21.08 С 5
{6}
н/о н/о +6.1 0.0 65 +2 +2 1008.3 1007.5
12 21.08 С 4
{7}
н/о н/о +6.4 -1.9 55 +3 +3 1009.0 1008.2
13 21.08 С 4
{6}
н/о н/о +6.7 -2.2 53 +4 +4 1009.4 1008.6
14 21.08 С 4
{5}
н/о н/о +6.6 -2.5 52 +3 +3 1009.9 1009.1
15 21.08 С 3
{5}
н/о н/о +6.9 -3.0 49 +4 +4 1010.3 1009.5
16 21.08 С 4
{5}
н/о н/о +6.3 -1.8 56 +3 +3 1010.8 1010.0
17 21.08 С 4
{5}
н/о н/о +6.0 -2.1 56 +3 +3 1011.3 1010.5
18 21.08 С 4
{6}
н/о н/о +5.6 -2.2 57 +2 +2 1011.8 1011.0 +4.7 +6.9
19 21.08 С 4
{5}
н/о н/о +5.1 -2.4 58 +2 +2 1012.2 1011.4
20 21.08 С 4
{4}
н/о н/о +4.6 -1.8 63 +1 +1 1012.5 1011.7
21 21.08 С 3
{4}
н/о н/о +4.5 -1.9 63 +1 +1 1013.0 1012.1
22 21.08 С 2
{4}
н/о н/о +3.7 -1.6 68 +1 +1 1013.3 1012.5
23 21.08
{3}
н/о н/о +3.8 -1.9 66 1013.6 1012.8
00 22.08 штиль 0
{5}
н/о н/о +3.7 -1.2 70 +3 +3 1014.1 1013.3
01 22.08 СЗ 2
{2}
н/о н/о +3.8 +0.5 79 +1 +1 1014.5 1013.7
02 22.08 СЗ 2
{2}
н/о н/о +3.3 +0.2 80 0 0 1014.7 1013.8
03 22.08 штиль 0
{2}
н/о н/о +3.4 +1.0 84 +2 +2 1014.9 1014.1
04 22.08 В 1
{2}
н/о н/о +3.9 +1.0 81 +3 +3 1015.0 1014.2
05 22.08 СВ 4
{4}
н/о н/о +3.8 +1.4 84 -1 -1 1015.0 1014.2
06 22.08 СВ 5
{6}
н/о н/о +3.7 +1.3 84 -1 -1 1015.2 1014.4 +2.9 +5.6
07 22.08 СВ 5
{5}
н/о н/о +3.7 +1.1 83 -1 -1 1015.4 1014.6
08 22.08 СВ 5
{6}
н/о н/о +3.8 +0.9 81 -1 -1 1015.6 1014.8
09 22.08 СВ 5
{6}
н/о н/о +3.9 +1.0 81 -1 -1 1015.8 1015.0
10 22.08 СВ 5
{6}
н/о н/о +3.9 +0.6 79 -1 -1 1015.9 1015.1
12 22.08 СВ 4 н/о н/о +4.5 +1.2 79 0 0 1016.2 1015.4
13 22.08 СВ 3
{5}
н/о н/о +4.6 +1.5 80 +1 +1 1016.4 1015.6
14 22.08 В 3
{4}
н/о н/о +4.6 +1.1 78 +1 +1 1016.6 1015.7
15 22.08 В 2
{3}
н/о н/о +4.7 +1.2 78 +2 +2 1016.5 1015.7
16 22.08 СВ 1
{2}
н/о н/о +4.8 +1.5 79 +4 +4 1016.5 1015.7
17 22.08 СВ 1
{2}
н/о н/о +4.7 +1.6 80 +3 +3 1016.6 1015.8
18 22.08 СВ 1
{5}
н/о н/о +4.5 +1.4 80 +3 +3 1016.7 1015.9
19 22.08 СВ 1
{1}
н/о н/о +4.4 +1.3 80 +3 +3 1016.9 1016.1
20 22.08 СВ 1
{2}
н/о н/о +4.3 +1.5 82 +3 +3 1017.0 1016.2
21 22.08 СВ 2
{2}
н/о н/о +4.2 +1.2 81 +2 +2 1017.2 1016.3
22 22.08 СЗ 1
{2}
н/о н/о +4.2 +1.2 81 +3 +3 1017.2 1016.4
23 22.08 СЗ 2
{2}
н/о н/о +4.0 +1.9 86 +1 +1 1017.3 1016.5
00 23.08 СЗ 2
{3}
н/о н/о +3.5 +2.6 94 0 0 1017.4 1016.6
01 23.08 С 1
{2}
н/о н/о +3.2 +2.2 93 +2 +2 1017.6 1016.8
02 23.08 С 1
{2}
н/о н/о +3.3 +2.3 93 +2 +2 1017.5 1016.7
03 23.08 СВ 2
{2}
н/о н/о +3.4 +2.2 92 0 0 1017.6 1016.8
04 23.08 ЮВ 1
{3}
н/о н/о +3.2 +2.0 92 +2 +2 1017.6 1016.8
05 23.08 штиль 0
{1}
н/о н/о +3.2 +1.9 91 +2 +2 1017.7 1016.9
06 23.08 штиль 0
{3}
н/о н/о +3.3 +1.5 88 +2 +2 1017.9 1017.1 +3.1 +4.5
07 23.08 З 3
{4}
н/о н/о +3.3 +1.2 86 -1 -1 1018.2 1017.4
08 23.08 З 3
{4}
н/о н/о +3.3 -0.1 78 -1 -1 1018.4 1017.6
09 23.08 З 4
{4}
н/о н/о +3.4 -0.2 77 -1 -1 1018.5 1017.7
10 23.08 З 4
{5}
н/о н/о +3.5 +0.2 79 -1 -1 1018.8 1018.0
11 23.08 З 4
{5}
н/о н/о +3.5 +0.2 79 -1 -1 1019.1 1018.3
12 23.08 З 3
{5}
н/о н/о +3.5 0.0 78 -0 -0 1019.3 1018.5
13 23.08 З 4
{5}
н/о н/о +3.3 +0.5 82 -1 -1 1019.5 1018.6
14 23.08 З 4
{5}
н/о н/о +3.3 +0.5 82 -1 -1 1019.5 1018.7
15 23.08 З 4
{5}
н/о н/о +3.5 0.0 78 -1 -1 1019.5 1018.6
16 23.08 З 3
{5}
н/о н/о +3.3 +0.4 81 -1 -1 1019.4 1018.6
17 23.08 З 4
{5}
н/о н/о +3.4 +0.3 80 -1 -1 1019.6 1018.8
18 23.08 З 4
{5}
н/о н/о +3.2 +0.6 83 -1 -1 1019.6 1018.8 +3.1 +3.7
19 23.08 З 3
{4}
н/о н/о +3.4 +0.1 79 -0 -0 1019.8 1019.0
20 23.08 З 3
{6}
н/о н/о +3.3 -0.5 76 -0 -0 1019.8 1019.0
21 23.08 СЗ 4
{5}
н/о н/о +2.9 +0.6 85 -2 -2 1020.0 1019.2
22 23.08 СЗ 3
{5}
н/о н/о +2.7 +0.3 84 -1 -1 1020.0 1019.2
23 23.08 СЗ 4
{6}
н/о н/о +2.6 -0.1 82 -2 -2 1020.1 1019.3
00 24.08 З 3
{6}
н/о н/о +2.9 -0.2 80 -1 -1 1020.2 1019.4
01 24.08 З 3
{4}
н/о н/о +2.9 -0.4 79 -1 -1 1020.3 1019.5
02 24.08 З 3
{5}
н/о н/о +2.8 +0.1 82 -1 -1 1020.5 1019.6
03 24.08 З 3
{4}
н/о н/о +2.9 -0.2 80 -1 -1 1020.5 1019.7
04 24.08 СЗ 3
{4}
н/о н/о +2.9 -0.4 79 -1 -1 1020.5 1019.7
05 24.08 З 3
{5}
н/о н/о +2.7 -0.7 78 -1 -1 1020.7 1019.8
06 24.08 З 3
{5}
н/о н/о +2.5 -0.2 82 -2 -2 1020.7 1019.9 +2.4 +3.6
07 24.08 З 4
{5}
н/о н/о +2.3 -0.3 83 -3 -3 1020.9 1020.1
08 24.08 ЮЗ 3
{4}
н/о н/о +2.5 +0.3 85 -2 -2 1021.0 1020.2
09 24.08 ЮЗ 3
{4}
н/о н/о +2.8 +0.1 82 -1 -1 1021.0 1020.2
10 24.08 ЮЗ 3
{5}
н/о н/о +3.0 +0.2 82 -1 -1 1021.0 1020.2
11 24.08 ЮЗ 3
{5}
н/о н/о +3.3 +0.4 81 -1 -1 1021.0 1020.2
12 24.08 ЮЗ 3
{5}
н/о н/о +3.4 +1.0 84 -1 -1 1021.0 1020.2
13 24.08 З 2
{4}
н/о н/о +3.7 +0.9 82 +1 +1 1021.0 1020.2
14 24.08 ЮЗ 2
{3}
н/о н/о +3.2 +1.3 87 0 0 1020.8 1019.9
15 24.08 З 2
{2}
н/о н/о +3.3 +1.5 88 0 0 1020.5 1019.7
16 24.08 ЮЗ 4
{5}
н/о н/о +3.6 +2.4 92 -1 -1 1020.1 1019.3
17 24.08 ЮЗ 3
{5}
н/о н/о +4.0 +2.0 87 0 0 1019.8 1018.9
18 24.08 ЮЗ 3
{5}
н/о н/о +4.7 +1.6 80 +1 +1 1019.6 1018.8 +2.3 +4.7
19 24.08 З 3
{4}
н/о н/о +4.5 +1.9 83 +1 +1 1019.4 1018.5
20 24.08 З 2
{4}
н/о н/о +3.9 +2.7 92 +1 +1 1019.1 1018.3
21 24.08 ЮЗ 3
{4}
н/о н/о +4.2 +2.6 89 0 0 1019.0 1018.1
22 24.08 ЮЗ 3
{5}
н/о н/о +4.1 +2.3 88 0 0 1018.7 1017.9
23 24.08 ЮЗ 4
{5}
н/о н/о +4.1 +2.0 86 -0 -0 1018.4 1017.6
00 25.08 Ю 4
{5}
н/о н/о +4.4 +1.3 80 0 0 1018.4 1017.6
01 25.08 Ю 4
{5}
н/о н/о +4.3 +1.2 80 0 0 1018.3 1017.5
02 25.08 Ю 4
{6}
н/о н/о +4.0 +1.1 81 -0 -0 1018.0 1017.2
03 25.08 ЮЗ 4
{6}
н/о н/о +4.4 +0.6 76 0 0 1017.7 1016.9
04 25.08 Ю 3
{5}
н/о н/о +4.5 +0.3 74 +1 +1 1017.5 1016.7
05 25.08 Ю 3
{6}
н/о н/о +4.4 +0.7 77 +1 +1 1017.5 1016.7
06 25.08 ЮВ 2
{6}
н/о н/о +5.2 0.0 69 +3 +3 1017.3 1016.5 +3.8 +5.2
07 25.08 Ю 1
{4}
н/о н/о +5.2 +0.4 71 +4 +4 1017.4 1016.6
08 25.08 СВ 2
{3}
н/о н/о +5.0 +1.0 75 +3 +3 1017.3 1016.5
09 25.08 С 2
{3}
н/о н/о +5.2 +1.5 77 +3 +3 1017.2 1016.4
10 25.08 С 2
{2}
н/о н/о +5.3 +1.4 76 +3 +3 1017.2 1016.4
11 25.08 СВ 2
{3}
н/о н/о +5.3 +1.6 77 +3 +3 1017.3 1016.5
12 25.08 СЗ 1
{4}
н/о н/о +5.5 +1.3 74 +5 +5 1017.4 1016.6
13 25.08 СВ 2
{2}
н/о н/о +5.6 +1.5 75 +3 +3 1017.2 1016.4
14 25.08 СВ 2
{3}
н/о н/о +5.6 +1.0 72 +3 +3 1017.1 1016.3
15 25.08 СВ 1
{2}
н/о н/о +5.5 +1.6 76 +4 +4 1017.1 1016.3
16 25.08 СВ 2
{3}
н/о н/о +5.7 +2.2 78 +3 +3 1017.1 1016.3
17 25.08 С 2
{2}
н/о н/о +5.5 +1.8 77 +3 +3 1017.1 1016.3
18 25.08 С 1
{3}
н/о н/о +5.0 +2.2 82 +4 +4 1017.3 1016.5 +4.9 +5.8
19 25.08 СВ 1
{2}
н/о н/о +4.7 +2.4 85 +3 +3 1017.4 1016.6
20 25.08 З 1
{1}
н/о н/о +4.8 +2.3 84 +4 +4 1017.7 1016.9

 

Местоположение метеостанции Акселойа (Норвегия): широта 77.68 долгота 14.78 высота над уровнем моря 6 м.

В архиве по умолчанию представлена погода на Акселойа за последнюю неделю. Архивные данные за месяц целиком и за предыдущие месяцы, начиная с января 2011 года, Вы можете получить, выбрав интересующий диапазон дат из раскрывающегося списка и нажав кнопку "Ввод!".


*Определитесь, кто Вы:
робот инопланетянин человек

Внимание! Время в таблицах - всемирное. Для получения местного времени необходимо прибавить поправку, которая равна 1 ч.

Смотрите также архив погоды в соседних городах и на ближайших метеорологических станциях:

Погода в Баренцбурге (Шпицберген, Россия) (45 км)
Погода в Свальбард аэропорту (Норвегия) (66 км)
Погода на Хорнсунне (Норвегия) (78 км)
Погода в Пирамиде (Норвегия) (115 км)
Погода на Сёркаппёйа (Норвегия) (141 км)
Погода в Ню-Олесунн (Норвегия) (152 км)
Погода на Эдже (Норвегия) (197 км)
Погода на Верлегенхукен (Норвегия) (265 км)
Погода в Хопене (Норвегия) (285 км)
Погода на Конгсёйа (Норвегия) (346 км)

Пояснения к столбцам:

Ветер - указаны скорость ветра в м/с - средняя за 10 мин, порывы в срок и между сроками (в фигурных скобках) и направление, откуда дует ветер: С - северный, СВ - северо-восточный, В - восточный, ЮВ - юго-восточный, Ю - южный, ЮЗ - юго-западный, З - западный, СЗ - северо-западный.
Видимость - горизонтальная дальность видимости в метрах или километрах. При видимости от 1 до 10 км при отсутствии осадков обычно наблюдается дымка, при ухудшении видимости до 1 км и менее - туман. В сухую погоду видимость может ухудшаться дымом, пылью или мглою.
Явления - указаны атмосферные явления, наблюдавшиеся в срок или в последний час перед сроком; фигурными скобками обозначены явления, наблюдавшиеся между сроками (за 1-3 часа до срока); квадратными скобками обозначены град или гололедные отложения с указанием их диаметра в мм.
Облачность - указаны через наклонную черту общая и нижняя облачность в баллах и высота нижней границы облаков в метрах; квадратными скобками обозначены формы облаков: Ci - перистые, Cs - перисто-слоистые, Cc - перисто-кучевые, Ac - высококучевые, As - высокослоистые, Sc - слоисто-кучевые, Ns - слоисто-дождевые, Cu - кучевые, Cb - кучево-дождевые. Подробнее классификацию облаков см. в Атласе облаков (PDF).
T - Температура воздуха - температура, измеренная на высоте 2 м над землей.
Td - Температура точки росы - температура, при понижении до которой содержащийся в воздухе водяной пар достигнет насыщения.
f - Относительная влажность воздуха - влажноcть воздуха, измеренная на высоте 2 м над землей.
Te - Эффективная температура - температура, которую ощущает одетый по сезону человек в тени. Характеристика душности погоды. При расчете учитывается влияние влажности воздуха и скорости ветра на теплоощущения человека.
Tes - Эффективная температура на солнце - температура, которую ощущает человек, с поправкой на солнечный нагрев. Характеристика знойности погоды. Зависит от высоты солнца над горизонтом, облачности и скорости ветра. Ночью, в пасмурную погоду, а также при ветре 12 м/с и более поправка равна нулю.
P - Атмосферное давление - приведенное к уровню моря атмосферное давление.
Po - Атмосферное давление - измеренное на уровне метеостанции атмосферное давление.
Tmin - Минимальная температура - минимум температуры воздуха на высоте 2 м над землей.
Tmax - Максимальная температура - максимум температуры воздуха на высоте 2 м над землей.
R - Количество осадков - Количество выпавших осадков за период времени, мм. При наведении курсора мыши на число - период времени, за который выпало указанное количество осадков.
R24 - Количество осадков - Количество выпавших осадков за 24 часа, мм.
S - Снежный покров - Высота снежного покрова, см. При наведении курсора мыши на число - состояние снежного покрова и степень покрытия местности в баллах.